DECAYED
Showing default

ICEYE-X19, 52758 (Decayed)

Orbit data source: Space-Track

ICEYE-X19, 52758 was a Brazilian payload satellite in LEO that was launched on Wed, 25 May 2022 UTC via an FALCON 9 launch vehicle from the Air Force Eastern Test Range (AFETR). Payload-class satellites include a variety of spacecraft equipped with specific instruments for various scientific and technological missions. These include communications satellites like Starlink; space stations such as the ISS; scientific satellites like the Hubble; Earth observation satellites from companies like Planet Labs, Umbra, and HawkEye 360; GPS; miniature CubeSats for education and research; and military/defense satellites.

Not visible in the next 10 days
Identifier
52758, 2022-057AC
Orbit
Decayed
Country
Flag of UnknownUnknown / BRAZ
Related business
Manufacturer
ICEYE
Mission
Decayed Defense Radar Imaging
Bus & Motor
ICEYE, Unknown motor
Mass
80 kg wet, 80 kg dry
Launch date (UTC)
2022-05-25 (4 years ago)
Launch vehicle
FALCON 9
Launch site
Air Force Eastern Test Range (AFETR)
Object type
Payload
Rocket body
Debris
Shape & HBR
Box + 1 Pan, 1.6 m
Radar Cross Section
1.837 m², Medium (>0.1 m² and < 1m²)

Expand to show TLE details & history
Last TLE update: 9 months ago

TLE from 9 months ago
0 ICEYE-X19
1 52758U 22057AC  25062.47080696  .11925632  26424-5  45199-3 0  9991
2 52758  97.5319 207.0285 0011749 274.1154  85.8803 16.42995436154677
Epoch: 2025-03-03T11:17Z
TLE epoch observation values (Epoch: 2025-03-03T11:17:57.721Z)
Latitude
-0.00008°
Longitude
-123.9501°
Altitude
160.555 km
Speed
7.81 km/s
True Right ascension
13h 48m 06s
True Declination
0° 00' 00"
Sunlit
Object was in full shadow at epoch
Visualization orbit readout
Latitude
Unknown
Longitude
Unknown
Altitude
Unknown
Speed
Unknown
Apparent Right ascension
Unknown
Apparent Declination
Unknown
Sunlit
N/A
Visualization observer readout
Local Sidereal Time
13:23:51
Azimuth
Unknown
Elevation
Unknown
Doppler factor
Unknown
Orbital elements
Apogee altitude
162.331 km
Perigee altitude
146.981 km
Semi-major axis
6,532.793 km
Eccentricity
0.00117
Inclination
97.5319°
RAAN
207.0285°
Arg. of periapsis
274.1154°
True anomaly
86.0146°
Mean anomaly
85.8803°
Eccentric anomaly
85.94745°
Mean motion
4.1105 °/min
Orbital period
87.58 mins
BSTAR
0.00045199
Loading maneuver chart data...
Computing Atmospheric mass density...

Documentation

Showing up to 5 results
|